Overview Statistics Trail Chart Weather Telemetry Raw packets
 

This is the latest recevied weather packets stored in our database for station/object SV3AQT-13. If no packets are shown the sender has not sent any weather packets the latest 10 day(s).

<< 4 5 6 7 8 9 10 >>
Time Temp. Humidity Pressure Rain* Wind** Luminosity Snow
1788588842 28.33° C 56% 1019.9 hPa 0 mm 0.45 m/s, 90° - -
1788588662 28.33° C 54% 1019.9 hPa 0 mm 0 m/s - -
1788588483 28.89° C 52% 1019.9 hPa 0 mm 0 m/s - -
1788588302 28.89° C 54% 1019.9 hPa 0 mm 0 m/s - -
1788588123 28.33° C 58% 1019.9 hPa 0 mm 0 m/s - -
1788587942 28.33° C 53% 1019.9 hPa 0 mm 0 m/s - -
1788587763 27.78° C 55% 1019.9 hPa 0 mm 0 m/s - -
1788587582 27.22° C 53% 1019.9 hPa 0 mm 0 m/s - -
1788587402 27.78° C 54% 1019.9 hPa 0 mm 0 m/s - -
1788587222 27.22° C 58% 1019.9 hPa 0 mm 0 m/s - -
1788587042 26.67° C 58% 1019.9 hPa 0 mm 0 m/s - -
1788586862 25.56° C 59% 1019.9 hPa 0 mm 0 m/s - -
1788586682 25.56° C 60% 1019.9 hPa 0 mm 0 m/s - -
1788586502 25.56° C 61% 1019.9 hPa 0 mm 0 m/s - -
1788586322 25° C 62% 1019.9 hPa 0 mm 0 m/s - -
1788586142 25° C 60% 1019.9 hPa 0 mm 0 m/s - -
1788585962 25° C 59% 1019.9 hPa 0 mm 0 m/s - -
1788585782 24.44° C 61% 1019.9 hPa 0 mm 0 m/s - -
1788585602 24.44° C 60% 1019.9 hPa 0 mm 0 m/s - -
1788585422 23.89° C 59% 1019.9 hPa 0 mm 0 m/s - -
1788585243 23.89° C 59% 1019.9 hPa 0 mm 0 m/s - -
1788585062 23.33° C 59% 1019.9 hPa 0 mm 0 m/s - -
1788584883 23.33° C 58% 1019.9 hPa 0 mm 0 m/s - -
1788584702 23.33° C 59% 1019.9 hPa 0 mm 0 m/s - -
1788584521 22.78° C 60% 1019.9 hPa 0 mm 0 m/s - -

* Rain latest hour (hover to see other rain measurements)
** Current wind speed in m/s (hover to see current wind gust speed)